Regional Weather Roundup
Issued by NWS

Home | Current Version | Previous Version | Graphics & Text | Print | Product List | Glossary On
Versions: 1 2 3 4 5 6 7 8 9 10 11 12 13 14 15 16 17 18 19 20 21 22 23 24 25 26 27 28 29 30 31 32 33 34 35 36 37 38 39 40 41 42 43 44 45 46 47 48 49 50
805
ASUS43 KMPX 022210
RWRMN
WEATHER ROUNDUP FOR MINNESOTA
NATIONAL WEATHER SERVICE TWIN CITIES/CHANHASSEN MN
500 PM CDT MON MAY 02 2016


NOTE: "FAIR" INDICATES FEW OR NO CLOUDS BELOW 12,000 FEET WITH NO
SIGNIFICANT WEATHER AND/OR OBSTRUCTIONS TO VISIBILITY. N/A MEANS
CURRENT SKY AND/OR WEATHER CONDITIONS ARE NOT AVAILABLE.

MNZ060>063-068>070-022300-
   Twin Cities Metro

CITY           SKY/WX    TMP DP  RH WIND       PRES   REMARKS
TWIN CITIES    MOSUNNY   65  30  27 MISG      30.01F
ST PAUL        SUNNY     66  30  26 E5        30.01F
CRYSTAL        SUNNY     68  28  22 CALM      29.99F
BLAINE         MOSUNNY   66  30  26 VRB3      30.00F
EDEN PRAIRIE   SUNNY     66  29  24 SW5       30.00F
SOUTH ST PAUL  SUNNY     65  31  28 NW3       30.00F
LAKE ELMO      FAIR      64  32  29 CALM      30.01F
$$
MNZ001>005-007-008-013>017-022>024-027-028-022300-
   Northwest Minnesota

CITY           SKY/WX    TMP DP  RH WIND       PRES   REMARKS
BEMIDJI        SUNNY     66  28  23 NE6       29.97F
HALLOCK        MOSUNNY   70  19  14 CALM      29.95F
ROSEAU         SUNNY     70  23  17 NW3       29.96F
WARROAD        SUNNY     63  34  34 E9        29.97F
THIEF RVR FALL SUNNY     68  23  18 NW5       29.97F
CROOKSTON      SUNNY     70  27  19 W6        29.96F
FOSSTON        SUNNY     72  21  15 SE8       29.97F
DETROIT LAKES  SUNNY     66  30  26 SW6       29.99F
MOORHEAD       SUNNY     68  25  19 W3        29.96F
PARK RAPIDS    MOSUNNY   66  24  20 N8        29.97F
MAHNOMEN       MOCLDY    67  28  22 CALM      29.97S
$$
MNZ006-009>011-018-025>026-022300-
   North Central Minnesota

CITY           SKY/WX    TMP DP  RH WIND       PRES   REMARKS
BAUDETTE       SUNNY     68  26  20 E6        29.96F
FLAG ISLAND    SUNNY     61  30  31 SE8       29.96F
INTL FALLS     SUNNY     67  25  20 VRB5      29.95F
WASKISH        SUNNY     64  30  27 SW8       29.97F
BIG FORK       SUNNY     68  27  21 CALM      29.97F
LONGVILLE      SUNNY     68  28  22 SW5       29.98S
GRAND RAPIDS   MOSUNNY   64  30  27 W5        30.00F
CRANE LAKE     SUNNY     66  25  20 W7        29.96F
ORR            SUNNY     68  21  17 CALM      29.93F
COOK           SUNNY     66  30  26 S3        29.97F
WALKER         FAIR      64  29  26 E8        29.97F
$$
MNZ012-019>021-037-022300-
   Northeast Minnesota

CITY           SKY/WX    TMP DP  RH WIND       PRES   REMARKS
DULUTH         MOSUNNY   63  32  31 SE9       29.99F
ELY            SUNNY     64  25  22 W5        29.96F
HIBBING        MOSUNNY   64  30  27 MISG      29.98F
EVELETH        MOSUNNY   64  30  27 W7        29.99F
DULUTH HARBOR  SUNNY     46  37  71 CALM      30.01F
TWO HARBORS    SUNNY     64  37  36 SE10      29.99F
SILVER BAY     SUNNY     61  30  31 S9        29.99F
GRAND MARAIS     N/A     43  34  70 CALM      30.03F
G MARAIS ARPRT SUNNY     54  27  35 S6        30.02F
$$
MNZ029>031-032-039>041-046>048-054>057-064-022300-
   West Central Minnesota

CITY           SKY/WX    TMP DP  RH WIND       PRES   REMARKS
FERGUS FALLS   SUNNY     66  30  26 E6        29.94F
WHEATON        SUNNY     66  34  30 S3        29.99F
MORRIS         SUNNY     70  30  23 S8        29.98F
ALEXANDRIA     MOSUNNY   66  28  24 S8        30.00F
ELBOW LAKE     FAIR      67  31  26 SW8       29.98F
WADENA         MOSUNNY   66  32  28 CALM      29.98S
GLENWOOD       MOSUNNY   66  28  24 W8        30.00F
APPLETON       PTSUNNY   70  27  19 S7        29.98F
BENSON         SUNNY     66  25  20 W6        29.99F
ORTONVILLE     PTSUNNY   64  30  27 CALM      29.99F
MADISON        MOSUNNY   66  28  24 S3        29.99F
WILLMAR        FAIR      66  30  26 W8        30.01F
$$
MNZ033>034-036-042>043-049>051-058-059-022300-
   Central Minnesota

CITY           SKY/WX    TMP DP  RH WIND       PRES   REMARKS
ST CLOUD       MOSUNNY   65  29  25 VRB3      29.99F
SAUK CENTRE    FAIR      65  31  28 S7        29.99F
PAYNESVILLE    CLOUDY    66  30  26 SE7       30.00F
AITKIN         SUNNY     66  21  18 CALM      29.98S
PINE RIVER     PTSUNNY   66  36  32 S6        30.01S
BRAINERD       MOSUNNY   64  30  27 SW8       29.99F
STAPLES        MOSUNNY   66  27  22 W5        29.98F
LONG PRAIRIE   FAIR      63  32  31 SW3       30.00S
LITTLE FALLS   SUNNY     64  28  25 SW6       29.99F
LITCHFIELD     SUNNY     68  32  26 S5        30.00F
BUFFALO        SUNNY     65  32  28 CALM      30.01F
MAPLE LAKE     MOSUNNY   65  36  33 CALM      30.01F
HUTCHINSON     SUNNY     66  38  35 E3        30.02F
$$
MNZ037-044-045-052-053-022300-
   East Central Minnesota

CITY           SKY/WX    TMP DP  RH WIND       PRES   REMARKS
PRINCETON      SUNNY     64  30  27 CALM      30.00F
MORA           SUNNY     64  32  29 S6        30.01F
CAMBRIDGE      PTSUNNY   66  43  42 CALM      29.98F
RUSH CITY      SUNNY     66  32  28 W3        30.00F
MOOSE LAKE     MOSUNNY   64  32  29 CALM      29.97F
HINCKLEY       FAIR      63  32  31 CALM      29.99F
CLOQUET        PTSUNNY   63  25  23 CALM      29.99F
MCGREGOR       SUNNY     64  28  25 SW3       30.00F
$$
MNZ071>073-080-081-089-090-097-098-022300-
   Southwest Minnesota

CITY           SKY/WX    TMP DP  RH WIND       PRES   REMARKS
MONTEVIDEO     SUNNY     68  32  26 W6        30.01F
GRANITE FALLS  SUNNY     68  34  28 S7        30.01F
CANBY          PTSUNNY   67  35  30 W6        30.01F
MARSHALL       MOSUNNY   65  32  29 S6        30.01F
REDWOOD FALLS  MOSUNNY   65  30  27 S3        30.00F
OLIVIA         MOSUNNY   63  32  31 SW3       30.00S
PIPESTONE      MOSUNNY   61  34  36 SW3       30.02F
WINDOM         SUNNY     63  32  31 CALM      30.02F
WORTHINGTON    CLOUDY    61  38  42 CALM      30.04F
JACKSON        SUNNY     61  32  33 S7        30.04F
TRACY          MOSUNNY   65  35  33 S3        30.01F
SLAYTON        MOSUNNY   62  32  32 CALM      30.03F
$$
MNZ065>067-074>077-082>085-091>093-022300-
   South Central Minnesota

CITY           SKY/WX    TMP DP  RH WIND       PRES   REMARKS
MANKATO        SUNNY     63  32  31 SE3       30.03S
NEW ULM        SUNNY     64  34  32 S8        30.02F
ST JAMES       SUNNY     57  32  38 S5        30.04F
FAIRMONT       PTSUNNY   61  30  31 W5        30.03F
GLENCOE        PTSUNNY   66  37  33 CALM      30.00F
FARIBAULT      MOSUNNY   66  34  30 SW5       30.02F
OWATONNA       MOSUNNY   64  32  29 S5        30.02F
WASECA         PTSUNNY   63  32  31 SW8       30.04S
ALBERT LEA     CLOUDY    63  37  39 S6        30.03F
$$
MNZ078>079-086>088-094>096-022300-
   Southeast Minnesota

CITY           SKY/WX    TMP DP  RH WIND       PRES   REMARKS
ROCHESTER      CLOUDY    63  37  38 VRB3      30.03F
RED WING       SUNNY     66  30  26 S6        30.00F
STANTON        MOSUNNY   66  31  27 SW3       30.00F
DODGE CENTER   MOSUNNY   61  37  41 CALM      30.03F
WINONA         PTSUNNY   63  34  34 SE3       30.02F
AUSTIN         SUNNY     61  36  39 SW3       30.03F
PRESTON        MOSUNNY   61  35  38 CALM      30.04S
$$
ABBREVIATIONS USED IN REMARKS
   TC - TEMPERATURES IN CELSIUS
  WCI - WIND CHILL INDEX
   HX - HEAT INDEX
  VSB - VISIBILITY
$$




USA.gov is the U.S. government's official web portal to all federal, state and local government web resources and services.